Simultaneous Nadir Overpasses (SNOs) Predictions

Prediction of SNOs between GOES-17 and METOP-A Satellite Orbit:

Table of predicted SNOs for the next 14.0 days since TLE Epoch: 1/7/2022
Index Date Time (GOES-17) GOES-17 Lat,Lon METOP-A Lat,Lon Distance(km) Time Diff (sec)
1 01/08/2022 17:01:31 -0.01,-137.22 -0.30,-135.89 151.12 80
2 01/09/2022 05:21:22 0.01,-137.21 -0.60,-140.03 320.78 80
3 01/11/2022 17:03:20 -0.01,-137.20 -0.23,-136.19 114.79 80
4 01/12/2022 05:23:20 0.01,-137.19 -0.71,-140.36 361.76 80
5 01/14/2022 04:49:44 0.02,-137.17 1.00,-132.79 499.51 80
6 01/14/2022 17:07:50 -0.02,-137.17 -0.13,-136.49 76.77 80
7 01/15/2022 05:22:39 0.01,-137.16 -0.77,-140.70 403.78 80
8 01/17/2022 04:54:21 0.00,-137.13 0.87,-133.11 457.15 80
9 01/17/2022 17:09:41 -0.00,-137.13 -0.07,-136.80 37.15 80
10 01/18/2022 05:24:35 0.00,-137.11 -0.88,-141.03 446.70 80
11 01/20/2022 04:56:17 -0.00,-137.07 0.81,-133.44 413.69 80
12 01/20/2022 17:08:51 0.00,-137.07 0.03,-137.10 4.74 80
13 01/21/2022 05:26:32 -0.00,-137.05 -0.92,-141.36 490.41 80
